• In Belarus
  • List of Countries
  • For 7 days
  • Water Temperature
  • Satellite Maps
  • Weather Map
  • Weather Widgets
  • user-avatar
    Login

    Hourly Weather Wadzhda

    Today, 22 September, Saturday

    Time Temperature Precipitation Wind Pressure Humidity
    00:00 +24°C° 0 mm 1 mps 717 mmHg 61%
    01:00 +24°C° 0 mm 1 mps 717 mmHg 62%
    02:00 +23°C° 0 mm 1 mps 716 mmHg 64%
    03:00 +21°C° 0 mm 0 mps 716 mmHg 65%
    04:00 +21°C° 0 mm 0 mps 717 mmHg 65%
    05:00 +20°C° 0 mm 0 mps 717 mmHg 66%
    06:00 +20°C° 0 mm 0 mps 717 mmHg 67%
    07:00 +24°C° 0 mm 1 mps 717 mmHg 59%
    08:00 +25°C° 0 mm 1 mps 718 mmHg 51%
    09:00 +27°C° 0 mm 1 mps 718 mmHg 44%
    10:00 +28°C° 0 mm 1 mps 718 mmHg 39%
    11:00 +29°C° 0 mm 1 mps 718 mmHg 35%
    12:00 +30°C° 0 mm 2 mps 718 mmHg 31%
    13:00 +30°C° 0 mm 2 mps 718 mmHg 31%
    14:00 +31°C° 0 mm 3 mps 718 mmHg 31%
    15:00 +32°C° 0 mm 4 mps 717 mmHg 31%
    16:00 +30°C° 0 mm 4 mps 717 mmHg 36%
    17:00 +29°C° 0 mm 4 mps 717 mmHg 40%
    18:00 +28°C° 0 mm 3 mps 717 mmHg 44%
    19:00 +27°C° 0 mm 3 mps 717 mmHg 48%
    20:00 +27°C° 0 mm 2 mps 718 mmHg 51%
    21:00 +26°C° 0 mm 1 mps 718 mmHg 54%
    22:00 +26°C° 0 mm 1 mps 718 mmHg 55%
    23:00 +26°C° 0 mm 1 mps 718 mmHg 55%

    Tomorrow, 23 September, Sunday

    Time Temperature Precipitation Wind Pressure Humidity
    00:00 +25°C° 0 mm 1 mps 718 mmHg 56%
    01:00 +25°C° 0 mm 1 mps 717 mmHg 56%
    02:00 +24°C° 0 mm 1 mps 717 mmHg 55%
    03:00 +24°C° 0 mm 1 mps 717 mmHg 55%
    04:00 +24°C° 0 mm 1 mps 717 mmHg 55%
    05:00 +23°C° 0 mm 1 mps 717 mmHg 55%
    06:00 +23°C° 0 mm 1 mps 717 mmHg 55%
    07:00 +25°C° 0 mm 1 mps 717 mmHg 48%
    08:00 +27°C° 0 mm 1 mps 718 mmHg 42%
    09:00 +28°C° 0 mm 1 mps 718 mmHg 36%
    10:00 +29°C° 0 mm 2 mps 718 mmHg 33%
    11:00 +30°C° 0 mm 2 mps 718 mmHg 30%
    12:00 +31°C° 0 mm 2 mps 718 mmHg 27%
    13:00 +33°C° 0 mm 3 mps 718 mmHg 26%
    14:00 +33°C° 0 mm 3 mps 718 mmHg 26%
    15:00 +33°C° 0 mm 3 mps 717 mmHg 26%
    16:00 +31°C° 0 mm 3 mps 717 mmHg 29%
    17:00 +31°C° 0 mm 3 mps 717 mmHg 31%
    18:00 +30°C° 0 mm 3 mps 717 mmHg 34%
    19:00 +29°C° 0 mm 2 mps 717 mmHg 37%
    20:00 +28°C° 0 mm 2 mps 717 mmHg 40%
    21:00 +28°C° 0 mm 1 mps 718 mmHg 43%
    22:00 +27°C° 0 mm 1 mps 717 mmHg 43%
    23:00 +27°C° 0 mm 1 mps 717 mmHg 43%

    Day after tomorrow, 24 September, Monday

    Time Temperature Precipitation Wind Pressure Humidity
    00:00 +26°C° 0 mm 1 mps 717 mmHg 44%
    01:00 +26°C° 0 mm 1 mps 717 mmHg 43%
    02:00 +26°C° 0 mm 1 mps 717 mmHg 43%
    03:00 +25°C° 0 mm 1 mps 717 mmHg 43%
    04:00 +25°C° 0 mm 1 mps 717 mmHg 44%
    05:00 +25°C° 0 mm 1 mps 717 mmHg 45%
    06:00 +24°C° 0 mm 1 mps 716 mmHg 45%
    07:00 +26°C° 0 mm 1 mps 717 mmHg 41%
    08:00 +28°C° 0 mm 1 mps 717 mmHg 37%
    09:00 +29°C° 0 mm 1 mps 718 mmHg 33%
    10:00 +30°C° 0 mm 1 mps 718 mmHg 31%
    11:00 +31°C° 0 mm 2 mps 718 mmHg 28%
    12:00 +32°C° 0 mm 2 mps 718 mmHg 26%
    13:00 +32°C° 0 mm 2 mps 717 mmHg 26%
    14:00 +32°C° 0 mm 2 mps 717 mmHg 26%
    15:00 +34°C° 0 mm 3 mps 717 mmHg 26%
    16:00 +33°C° 0 mm 3 mps 716 mmHg 30%
    17:00 +31°C° 0 mm 3 mps 716 mmHg 33%
    18:00 +30°C° 0 mm 3 mps 716 mmHg 37%
    19:00 +29°C° 0 mm 3 mps 716 mmHg 40%
    20:00 +28°C° 0 mm 2 mps 717 mmHg 44%
    21:00 +28°C° 0 mm 2 mps 717 mmHg 47%
    22:00 +27°C° 0 mm 2 mps 717 mmHg 49%
    23:00 +27°C° 0 mm 2 mps 717 mmHg 51%

    25 September, Tuesday

    Time Temperature Precipitation Wind Pressure Humidity
    00:00 +26°C° 0 mm 1 mps 717 mmHg 53%
    01:00 +26°C° 0 mm 1 mps 716 mmHg 56%
    02:00 +25°C° 0 mm 1 mps 716 mmHg 58%
    03:00 +25°C° 0 mm 1 mps 716 mmHg 61%
    04:00 +25°C° 0 mm 1 mps 716 mmHg 61%
    05:00 +25°C° 0 mm 1 mps 716 mmHg 61%
    06:00 +25°C° 0 mm 1 mps 716 mmHg 61%
    07:00 +26°C° 0 mm 1 mps 716 mmHg 58%
    08:00 +26°C° 0 mm 1 mps 717 mmHg 55%
    09:00 +27°C° 0 mm 1 mps 717 mmHg 52%
    10:00 +28°C° 0 mm 2 mps 717 mmHg 49%
    11:00 +29°C° 0 mm 2 mps 717 mmHg 46%
    12:00 +30°C° 0 mm 3 mps 717 mmHg 42%
    13:00 +30°C° 0 mm 3 mps 717 mmHg 44%
    14:00 +30°C° 0 mm 4 mps 716 mmHg 46%
    15:00 +30°C° 0 mm 4 mps 716 mmHg 47%
    16:00 +29°C° 0 mm 4 mps 716 mmHg 52%
    17:00 +28°C° 0 mm 4 mps 716 mmHg 56%
    18:00 +28°C° 0 mm 3 mps 716 mmHg 61%
    19:00 +27°C° 0.1 mm 3 mps 717 mmHg 65%
    20:00 +26°C° 0.1 mm 3 mps 717 mmHg 70%
    21:00 +25°C° 0.1 mm 3 mps 717 mmHg 75%
    22:00 +25°C° 0.1 mm 3 mps 717 mmHg 76%
    23:00 +25°C° 0.1 mm 2 mps 717 mmHg 77%

    26 September, Wednesday

    Time Temperature Precipitation Wind Pressure Humidity
    00:00 +24°C° 0.1 mm 2 mps 717 mmHg 79%
    01:00 +24°C° 0.3 mm 2 mps 717 mmHg 79%
    02:00 +24°C° 0.3 mm 2 mps 717 mmHg 80%
    03:00 +24°C° 0.3 mm 2 mps 717 mmHg 80%
    04:00 +23°C° 0 mm 2 mps 717 mmHg 81%
    05:00 +23°C° 0 mm 2 mps 717 mmHg 82%
    06:00 +23°C° 0 mm 2 mps 717 mmHg 83%
    07:00 +24°C° 0.1 mm 2 mps 718 mmHg 78%
    08:00 +24°C° 0.1 mm 2 mps 718 mmHg 72%
    09:00 +25°C° 0.1 mm 2 mps 718 mmHg 67%
    10:00 +26°C° 0.1 mm 3 mps 718 mmHg 62%
    11:00 +27°C° 0.1 mm 3 mps 718 mmHg 57%
    12:00 +29°C° 0.1 mm 3 mps 718 mmHg 51%
    13:00 +29°C° 0.2 mm 4 mps 718 mmHg 51%
    14:00 +29°C° 0.2 mm 5 mps 718 mmHg 51%
    15:00 +29°C° 0.2 mm 5 mps 717 mmHg 51%
    16:00 +28°C° 0.8 mm 5 mps 717 mmHg 55%
    17:00 +27°C° 0.8 mm 5 mps 718 mmHg 60%
    18:00 +26°C° 0.8 mm 4 mps 718 mmHg 64%
    19:00 +26°C° 0.3 mm 4 mps 718 mmHg 67%
    20:00 +25°C° 0.3 mm 3 mps 718 mmHg 69%
    21:00 +25°C° 0.3 mm 3 mps 719 mmHg 72%
    22:00 +25°C° 0.3 mm 2 mps 718 mmHg 74%
    23:00 +24°C° 0.3 mm 2 mps 718 mmHg 75%

    27 September, Thursday

    Time Temperature Precipitation Wind Pressure Humidity
    00:00 +24°C° 0.3 mm 2 mps 718 mmHg 77%
    01:00 +24°C° 0.4 mm 2 mps 718 mmHg 76%
    02:00 +24°C° 0.4 mm 2 mps 718 mmHg 76%
    03:00 +24°C° 0.4 mm 2 mps 718 mmHg 75%
    04:00 +23°C° 0 mm 2 mps 718 mmHg 76%
    05:00 +23°C° 0 mm 1 mps 718 mmHg 77%
    06:00 +23°C° 0 mm 1 mps 718 mmHg 78%
    07:00 +24°C° 0 mm 1 mps 718 mmHg 73%
    08:00 +24°C° 0 mm 1 mps 718 mmHg 69%
    09:00 +25°C° 0 mm 1 mps 718 mmHg 65%
    10:00 +26°C° 0.2 mm 1 mps 718 mmHg 60%
    11:00 +27°C° 0.2 mm 2 mps 718 mmHg 55%
    12:00 +28°C° 0.2 mm 2 mps 718 mmHg 51%
    13:00 +29°C° 0.1 mm 3 mps 717 mmHg 50%
    14:00 +29°C° 0.1 mm 3 mps 717 mmHg 50%
    15:00 +29°C° 0.1 mm 4 mps 716 mmHg 49%
    16:00 +28°C° 0.3 mm 3 mps 716 mmHg 53%
    17:00 +28°C° 0.3 mm 3 mps 716 mmHg 57%
    18:00 +27°C° 0.3 mm 3 mps 716 mmHg 60%
    19:00 +27°C° 0.2 mm 3 mps 716 mmHg 62%
    20:00 +26°C° 0.2 mm 3 mps 716 mmHg 63%
    21:00 +26°C° 0.2 mm 3 mps 717 mmHg 65%
    22:00 +26°C° 0.1 mm 2 mps 716 mmHg 66%
    23:00 +25°C° 0.1 mm 2 mps 716 mmHg 67%
    Show more